{"data":{"norad_id":65201,"epoch":"2026-09-20T20:50:23.053632Z","epoch_age_seconds":88348,"freshness":"FRESH","line1":"1 65201U 25176D   26263.86832238  .00014413  00000+0  43692-3 0  9993","line2":"2 65201  53.1590 321.8563 0001078  87.6125 272.5001 15.34396291 63067","mean_motion":15.34396291,"eccentricity":0.0001078,"inclination_deg":53.159,"raan_deg":321.8563,"arg_perigee_deg":87.6125,"mean_anomaly_deg":272.5001,"bstar":0.00043692,"rev_number":6306,"period_min":93.847984933639,"perigee_km":461.97682039267,"apogee_km":463.45170792523,"semimajor_km":6840.8512641589,"source":"CELESTRAK","updated_at":"2026-09-21T09:00:35.533505Z"}}